Location: Sommers-Bausch Observatory
(40.0037°N, 105.2635°W)
Time: 23:33:03
(UTC-07:00)

Amateur Radio Satellites - All Passes

Search period start: 27 January 2015 23:03
Search period end: 28 January 2015 23:03
Location: Sommers-Bausch Observatory, 40.0037°N, 105.2635°W

Satellite Date Start Highest point End Downlink Frequencies (MHz)
Time Altitude Azimuth
UNISAT 6 27 Jan 23:11:31 23:15:52 49° 287° (WNW) 23:20:05 437.425
QB50P1 27 Jan 23:12:03 23:16:24 81° 283° (WNW) 23:20:41 145.935-145.965
SWISSCUBE 27 Jan 23:12:35 23:13:25 11° 62° (ENE) 23:14:31 437.505
ISS 27 Jan 23:23:25 23:26:21 29° 333° (NNW) 23:29:17 145.825
POLYITAN 1 27 Jan 23:25:50 23:30:05 55° 286° (WNW) 23:34:18 437.675
BEESAT 27 Jan 23:27:03 23:29:25 14° 64° (ENE) 23:31:59 436.000
TISAT 1 27 Jan 23:28:14 23:32:28 87° 77° (ENE) 23:36:46 437.305
ITUPSAT 1 27 Jan 23:29:45 23:32:16 15° 64° (ENE) 23:34:59 437.325
BUGSAT 1 27 Jan 23:32:13 23:36:28 62° 285° (WNW) 23:40:41 437.445
POPSAT HIP 1 27 Jan 23:47:01 23:50:56 33° 289° (WNW) 23:54:46 437.405
AIST 1 27 Jan 23:47:19 23:50:05 16° 272° (W) 23:52:39
ANTELSAT 27 Jan 23:48:09 23:51:34 21° 293° (WNW) 23:54:49 437.575/2403.000
ESTCUBE 1 27 Jan 23:48:11 23:50:37 14° 270° (W) 23:52:49 437.505/2401.250
DUCHIFAT 1 27 Jan 23:50:42 23:54:30 30° 290° (WNW) 23:58:15 145.980
GONETS M04 27 Jan 23:51:51 23:57:17 19° 81° (E) 00:03:10
TIGRISAT 27 Jan 23:57:08 00:00:13 18° 294° (WNW) 00:03:05 435.000
SPROUT 28 Jan 00:22:33 00:26:03 23° 266° (W) 00:29:30 437.525
NANOSAT C BR1 28 Jan 00:26:14 00:28:31 14° 295° (WNW) 00:30:37 145.865
SWISSCUBE 28 Jan 00:45:54 00:50:40 87° 257° (WSW) 00:55:28 437.505
BEESAT 28 Jan 01:02:05 01:06:48 64° 259° (W) 01:11:32 436.000
ISS 28 Jan 01:02:19 01:03:42 12° 352° (N) 01:05:03 145.825
M-CUBED/EXP-1 PRIME 28 Jan 01:02:29 01:03:47 12° 62° (ENE) 01:05:15 437.505
ITUPSAT 1 28 Jan 01:05:01 01:09:44 61° 259° (W) 01:14:28 437.325
Oscar 19 28 Jan 01:12:55 01:17:53 47° 99° (E) 01:22:49 437.125/150
ITAMSAT 1 28 Jan 01:26:19 01:30:15 22° 92° (E) 01:34:20 435.822/435.867
BEESAT 2 28 Jan 01:31:18 01:33:39 15° 111° (ESE) 01:36:13 435.950
AUBIESAT-1 28 Jan 01:34:56 01:38:08 24° 66° (ENE) 01:41:14 437.475
STARS 28 Jan 01:44:08 01:48:21 45° 72° (ENE) 01:52:39 437.465
GONETS M04 28 Jan 01:44:24 01:53:12 83° 278° (W) 02:01:59
BEESAT 3 28 Jan 01:45:51 01:49:11 25° 113° (ESE) 01:52:40 437.485
KKS-1 28 Jan 01:46:55 01:51:24 76° 74° (ENE) 01:55:54 437.445
O/OREOS (USA 219) 28 Jan 02:01:10 02:05:42 55° 65° (ENE) 02:10:14 437.305
Gurwin Techsat 1B 28 Jan 02:14:00 02:19:02 43° 98° (E) 02:24:06 435.225
CUSAT 1 28 Jan 02:17:03 02:18:08 10° 78° (ENE) 02:20:00 437.405
M-CUBED/EXP-1 PRIME 28 Jan 02:34:24 02:38:30 58° 254° (WSW) 02:42:17 437.505
ISS 28 Jan 02:39:33 02:41:19 14° 13° (NNE) 02:43:06 145.825
Oscar 19 28 Jan 02:53:05 02:56:56 21° 295° (WNW) 03:00:38 437.125/150
AIST 2 28 Jan 02:55:45 02:59:52 53° 117° (ESE) 03:04:04 435.215
RS-15 28 Jan 02:55:51 03:00:37 15° 100° (E) 03:06:19 29.354- 29.394
ITAMSAT 1 28 Jan 03:05:02 03:10:00 44° 289° (WNW) 03:14:56 435.822/435.867
BEESAT 2 28 Jan 03:07:33 03:11:32 47° 306° (NW) 03:15:36 435.950
AUBIESAT-1 28 Jan 03:09:35 03:13:01 25° 258° (WSW) 03:16:11 437.475
MOZHAYETS 4 28 Jan 03:16:31 03:20:17 26° 69° (ENE) 03:24:07
DANDE 28 Jan 03:16:58 03:23:34 30° 86° (E) 03:30:49 436.750
STARS 28 Jan 03:22:19 03:25:09 16° 269° (W) 03:27:47 437.465
BEESAT 3 28 Jan 03:23:36 03:27:15 30° 310° (NW) 03:30:56 437.485
AO-7 28 Jan 03:27:11 03:34:35 36° 96° (E) 03:42:06 29.400- 29.500
HORYU 2 28 Jan 03:28:12 03:32:40 76° 102° (ESE) 03:37:05 437.375
PCSat 28 Jan 03:36:35 03:40:56 26° 109° (ESE) 03:45:26 145.827
O/OREOS (USA 219) 28 Jan 03:42:17 03:44:42 14° 260° (W) 03:46:54 437.305
GONETS M04 28 Jan 03:46:20 03:51:43 16° 301° (WNW) 03:56:35
CUSAT 1 28 Jan 03:51:57 03:59:47 59° 93° (E) 04:08:04 437.405
Gurwin Techsat 1B 28 Jan 03:54:33 03:58:48 24° 294° (WNW) 04:02:55 435.225
ISS 28 Jan 04:15:19 04:18:30 43° 31° (NNE) 04:21:40 145.825
JAS-2 28 Jan 04:28:41 04:34:10 51° 100° (E) 04:40:21 435.910
AIST 2 28 Jan 04:35:49 04:38:50 18° 316° (NW) 04:41:48 435.215
STRAND 1 28 Jan 04:41:28 04:43:52 14° 62° (ENE) 04:46:31 437.568
MOZHAYETS 4 28 Jan 04:53:25 04:57:27 29° 265° (W) 05:01:27
DANDE 28 Jan 04:58:28 05:06:30 65° 283° (WNW) 05:15:10 436.750
Cubesat XI-IV 28 Jan 04:59:58 05:01:53 12° 87° (E) 05:04:10 437.490
RS-15 28 Jan 05:00:30 05:11:21 75° 117° (ESE) 05:22:17 29.354- 29.394
CUBESAT XI-V 28 Jan 05:05:05 05:08:55 27° 69° (ENE) 05:12:49 437.345
HORYU 2 28 Jan 05:07:39 05:08:48 11° 297° (WNW) 05:09:41 437.375
CUTE-I 28 Jan 05:18:55 05:22:37 19° 91° (E) 05:26:29 437.470
PCSat 28 Jan 05:19:01 05:24:09 43° 305° (NW) 05:29:20 145.827
AO-7 28 Jan 05:19:39 05:27:40 51° 295° (WNW) 05:35:32 29.400- 29.500
CUSAT 1 28 Jan 05:35:57 05:43:18 34° 292° (WNW) 05:50:40 437.405
PRISM 28 Jan 05:40:11 05:44:18 81° 257° (WSW) 05:48:26 437.425
ISS 28 Jan 05:52:17 05:54:50 20° 227° (SW) 05:57:19 145.825
YUBILEINY 28 Jan 05:53:27 06:01:20 37° 71° (ENE) 06:09:24 435.215
JAS-2 28 Jan 06:14:42 06:19:07 23° 293° (WNW) 06:23:43 435.910
STRAND 1 28 Jan 06:17:26 06:22:30 75° 257° (WSW) 06:27:39 437.568
Cubesat XI-IV 28 Jan 06:37:20 06:42:44 79° 286° (WNW) 06:48:07 437.490
CUBESAT XI-V 28 Jan 06:42:19 06:46:19 28° 265° (W) 06:50:17 437.345
DANDE 28 Jan 06:47:19 06:51:57 15° 305° (NW) 06:56:06 436.750
CUTE-I 28 Jan 06:57:51 07:03:04 52° 288° (WNW) 07:08:16 437.470
RS-15 28 Jan 07:14:59 07:24:49 36° 323° (NW) 07:34:40 29.354- 29.394
AO-7 28 Jan 07:16:20 07:18:42 11° 315° (NW) 07:20:32 29.400- 29.500
BRITE-PL 28 Jan 07:50:01 07:54:42 27° 92° (E) 07:59:20 437.365/2234.400
YUBILEINY 28 Jan 07:50:06 07:58:25 48° 271° (W) 08:06:38 435.215
SEEDS 28 Jan 07:51:19 07:52:27 11° 88° (E) 07:53:50 437.485
GOMX 1 28 Jan 07:52:09 07:55:49 19° 89° (E) 07:59:33 467.674
DOVE 4 28 Jan 08:09:56 08:13:31 19° 89° (E) 08:17:09 437.250
VERMONT LUNAR 28 Jan 08:14:22 08:16:57 20° 150° (SSE) 08:19:35 437.305
COMPASS 1 28 Jan 08:18:01 08:20:59 19° 92° (E) 08:24:04 437.405
Cubesat XI-IV 28 Jan 08:20:45 08:22:04 11° 301° (WNW) 08:23:04 437.490
CANX-2 28 Jan 08:28:06 08:32:06 40° 98° (E) 08:36:04 2200.000
HO-68 28 Jan 08:29:34 08:36:25 47° 99° (E) 08:43:17 435.675
UNISAT 6 28 Jan 08:35:15 08:37:39 14° 65° (ENE) 08:40:15 437.425
AAUSAT CUBESAT 2 28 Jan 08:44:37 08:48:24 34° 97° (E) 08:52:11 437.432
DELFI C3 28 Jan 08:47:45 08:49:40 13° 90° (E) 08:51:48 145.870
Oscar 11 28 Jan 08:50:26 08:53:31 19° 92° (E) 08:56:41 145.826/435.025
CUTE 1.7 + AOD 2 28 Jan 08:52:17 08:56:31 71° 101° (ESE) 09:00:42 437.475
POPSAT HIP 1 28 Jan 09:05:04 09:07:31 15° 66° (ENE) 09:10:09 437.405
PHONESAT 2.4 28 Jan 09:05:58 09:09:02 26° 153° (SSE) 09:12:08 2401.200-2431.200
DUCHIFAT 1 28 Jan 09:08:14 09:10:50 16° 66° (ENE) 09:13:36 145.980
ANTELSAT 28 Jan 09:09:12 09:13:18 31° 70° (ENE) 09:17:29 437.575/2403.000
SO-50 28 Jan 09:12:05 09:13:48 12° 108° (ESE) 09:15:46 436.795
TIGRISAT 28 Jan 09:17:24 09:21:42 37° 71° (ENE) 09:26:03 435.000
SEEDS 28 Jan 09:24:37 09:28:45 57° 285° (WNW) 09:32:50 437.485
CUBEBUG 2 28 Jan 09:24:41 09:28:49 33° 96° (E) 09:32:52 437.445
UKube-1 28 Jan 09:24:48 09:28:25 25° 95° (E) 09:32:05 .
BRITE-PL 28 Jan 09:28:00 09:33:21 42° 289° (WNW) 09:38:28 437.365/2234.400
GOMX 1 28 Jan 09:29:02 09:34:21 54° 287° (WNW) 09:39:26 467.674
RS-15 28 Jan 09:34:37 09:41:50 19° 356° (N) 09:49:08 29.354- 29.394
ZACube-1 28 Jan 09:37:13 09:41:08 31° 95° (E) 09:45:01 437.345
50 SAT 28 Jan 09:37:22 09:38:24 11° 88° (E) 09:39:40 437.505
NANOSAT C BR1 28 Jan 09:41:04 09:45:00 37° 71° (ENE) 09:48:58 145.865
CINEMA 3 28 Jan 09:41:34 09:46:30 89° 130° (SE) 09:51:08 145.822/145.860
DX 1 28 Jan 09:43:52 09:48:05 43° 99° (E) 09:52:17 434.975-435.025
DOVE 4 28 Jan 09:46:35 09:51:39 49° 288° (WNW) 09:56:26 437.250
HUMSAT D 28 Jan 09:49:07 09:52:25 22° 93° (E) 09:55:45 437.325/437.525
FUNcube-1 28 Jan 09:49:22 09:53:34 42° 98° (E) 09:57:41 145.935
VERMONT LUNAR 28 Jan 09:51:16 09:54:44 68° 165° (SSE) 09:58:14 437.305
BEESAT 2 28 Jan 09:51:48 09:53:08 11° 38° (NE) 09:54:38 435.950
COMPASS 1 28 Jan 09:53:05 09:56:50 32° 289° (WNW) 10:00:31 437.405
QB50P2 28 Jan 09:54:28 09:58:38 54° 74° (ENE) 10:02:52 145.880/145.840
AISAT 28 Jan 10:03:29 10:07:18 27° 95° (E) 10:11:10 437.250
QB50P1 28 Jan 10:04:07 10:08:21 69° 75° (ENE) 10:12:38 145.935-145.965
ESTCUBE 1 28 Jan 10:04:40 10:06:10 12° 88° (E) 10:07:56 437.505/2401.250
CANX-2 28 Jan 10:04:58 10:07:46 17° 293° (WNW) 10:10:27 2200.000
BEESAT 3 28 Jan 10:06:05 10:08:43 16° 43° (NE) 10:11:25 437.485
UWE-3 28 Jan 10:06:47 10:11:20 83° 104° (ESE) 10:15:42 435.000/436.395/437.385
UNISAT 6 28 Jan 10:09:19 10:14:00 63° 260° (W) 10:18:41 437.425
HO-68 28 Jan 10:17:40 10:23:58 34° 296° (WNW) 10:30:09 435.675
POLYITAN 1 28 Jan 10:18:06 10:22:24 81° 257° (WSW) 10:26:45 437.675
AAUSAT CUBESAT 2 28 Jan 10:20:52 10:23:53 19° 292° (WNW) 10:26:46 437.432
DELFI C3 28 Jan 10:21:22 10:25:14 44° 287° (WNW) 10:29:04 145.870
BUGSAT 1 28 Jan 10:21:39 10:25:44 84° 79° (ENE) 10:29:55 437.445
Oscar 11 28 Jan 10:25:54 10:29:51 35° 288° (WNW) 10:33:43 145.826/435.025
CUTE 1.7 + AOD 2 28 Jan 10:31:11 10:31:56 10° 296° (WNW) 10:32:27 437.475
VELOX 1 28 Jan 10:31:54 10:36:20 54° 101° (E) 10:40:44 145.980
AIST 1 28 Jan 10:38:09 10:41:32 24° 90° (E) 10:45:01
POPSAT HIP 1 28 Jan 10:38:57 10:43:05 47° 261° (W) 10:47:15 437.405
DUCHIFAT 1 28 Jan 10:42:19 10:46:24 43° 262° (W) 10:50:30 145.980
PHONESAT 2.4 28 Jan 10:43:44 10:47:21 80° 169° (S) 10:51:01 2401.200-2431.200
CUBEBUG 1 28 Jan 10:43:50 10:47:43 29° 95° (E) 10:51:39 437.445
ANTELSAT 28 Jan 10:46:07 10:50:08 26° 266° (W) 10:54:03 437.575/2403.000
SO-50 28 Jan 10:49:14 10:53:47 70° 304° (NW) 10:58:30 436.795
TIGRISAT 28 Jan 10:54:51 10:58:35 22° 267° (W) 11:02:12 435.000
UKube-1 28 Jan 11:00:50 11:04:34 27° 291° (WNW) 11:08:14 .
CUBEBUG 2 28 Jan 11:01:44 11:05:22 23° 292° (WNW) 11:08:49 437.445
50 SAT 28 Jan 11:09:59 11:13:58 53° 286° (WNW) 11:17:52 437.505
ZACube-1 28 Jan 11:13:51 11:17:23 23° 292° (WNW) 11:20:46 437.345
TISAT 1 28 Jan 11:15:20 11:17:41 15° 90° (E) 11:20:14 437.305
NANOSAT C BR1 28 Jan 11:18:02 11:21:03 18° 268° (W) 11:23:56 145.865
AIST 2 28 Jan 11:18:31 11:22:19 30° 49° (NE) 11:26:05 435.215
DX 1 28 Jan 11:21:05 11:24:02 17° 294° (WNW) 11:26:51 434.975-435.025
CINEMA 3 28 Jan 11:21:59 11:22:57 10° 299° (WNW) 11:23:39 145.822/145.860
HUMSAT D 28 Jan 11:24:33 11:28:16 29° 290° (WNW) 11:31:51 437.325/437.525
FUNcube-1 28 Jan 11:26:37 11:29:37 18° 294° (WNW) 11:32:27 145.935
BEESAT 2 28 Jan 11:27:53 11:32:06 85° 58° (ENE) 11:36:13 435.950
VERMONT LUNAR 28 Jan 11:29:22 11:32:53 80° 360° (N) 11:36:25 437.305
QB50P2 28 Jan 11:33:02 11:34:58 12° 271° (W) 11:36:43 145.880/145.840
ESTCUBE 1 28 Jan 11:39:05 11:43:34 63° 285° (WNW) 11:48:03 437.505/2401.250
AISAT 28 Jan 11:40:03 11:43:54 28° 291° (WNW) 11:47:41 437.250
BEESAT 3 28 Jan 11:43:10 11:47:15 56° 242° (WSW) 11:51:15 437.485
RS-15 28 Jan 11:50:04 11:59:22 29° 31° (NNE) 12:09:14 29.354- 29.394
GONETS M04 28 Jan 11:55:41 12:04:00 48° 75° (ENE) 12:12:22
SPROUT 28 Jan 12:09:00 12:13:20 63° 101° (E) 12:17:39 437.525
VELOX 1 28 Jan 12:09:55 12:12:31 15° 295° (WNW) 12:14:57 145.980
AIST 1 28 Jan 12:15:36 12:19:09 25° 286° (WNW) 12:22:40
CUBEBUG 1 28 Jan 12:20:21 12:24:01 25° 291° (WNW) 12:27:36 437.445
PHONESAT 2.4 28 Jan 12:22:20 12:25:59 84° 5° (N) 12:29:39 2401.200-2431.200
PCSat 28 Jan 12:24:41 12:28:44 21° 46° (NE) 12:32:53 145.827
Oscar 19 28 Jan 12:28:57 12:34:04 65° 74° (ENE) 12:39:15 437.125/150
SO-50 28 Jan 12:33:26 12:35:19 12° 325° (NW) 12:37:03 436.795
ITAMSAT 1 28 Jan 12:43:36 12:48:05 32° 68° (ENE) 12:52:41 435.822/435.867
SWISSCUBE 28 Jan 12:47:35 12:51:30 25° 94° (E) 12:55:30 437.505
TISAT 1 28 Jan 12:49:42 12:53:50 45° 287° (WNW) 12:57:54 437.305
AIST 2 28 Jan 12:57:14 13:00:52 26° 247° (WSW) 13:04:22 435.215
BEESAT 28 Jan 13:03:19 13:07:37 34° 96° (E) 13:11:58 436.000
ITUPSAT 1 28 Jan 13:06:32 13:10:55 36° 97° (E) 13:15:21 437.325
VERMONT LUNAR 28 Jan 13:07:32 13:10:59 55° 198° (SSW) 13:14:26 437.305
Gurwin Techsat 1B 28 Jan 13:34:22 13:39:35 64° 74° (ENE) 13:44:52 435.225
KKS-1 28 Jan 13:40:16 13:42:53 16° 91° (E) 13:45:41 437.445
SPROUT 28 Jan 13:47:07 13:48:59 12° 296° (WNW) 13:50:38 437.525
GONETS M04 28 Jan 13:52:58 14:00:40 36° 273° (W) 14:08:10
PHONESAT 2.4 28 Jan 14:00:59 14:04:29 44° 202° (SSW) 14:07:58 2401.200-2431.200
RS-15 28 Jan 14:02:22 14:13:47 83° 57° (ENE) 14:25:46 29.354- 29.394
DANDE 28 Jan 14:03:19 14:07:40 18° 58° (ENE) 14:11:36 436.750
PCSat 28 Jan 14:07:17 14:12:39 62° 245° (WSW) 14:17:58 145.827
Oscar 19 28 Jan 14:11:01 14:13:59 15° 271° (W) 14:16:41 437.125/150
ITAMSAT 1 28 Jan 14:23:02 14:27:36 30° 265° (W) 14:32:07 435.822/435.867
SWISSCUBE 28 Jan 14:25:10 14:29:27 33° 290° (WNW) 14:33:40 437.505
AO-7 28 Jan 14:25:14 14:33:02 47° 64° (ENE) 14:40:57 29.400- 29.500
HORYU 2 28 Jan 14:25:49 14:30:16 65° 74° (ENE) 14:34:46 437.375
CUSAT 1 28 Jan 14:36:26 14:42:15 36° 69° (ENE) 14:46:45 437.405
BEESAT 28 Jan 14:41:27 14:45:22 25° 292° (WNW) 14:49:10 436.000
JAS-2 28 Jan 14:43:00 14:46:26 18° 65° (ENE) 14:49:58 435.910
ITUPSAT 1 28 Jan 14:44:49 14:48:40 24° 293° (WNW) 14:52:25 437.325
VERMONT LUNAR 28 Jan 14:46:38 14:48:41 15° 213° (SSW) 14:50:40 437.305
AUBIESAT-1 28 Jan 14:51:55 14:54:04 16° 99° (E) 14:56:21 437.475
STARS 28 Jan 15:10:56 15:15:25 80° 285° (WNW) 15:19:50 437.465
KKS-1 28 Jan 15:15:32 15:19:52 47° 287° (WNW) 15:24:09 437.445
Gurwin Techsat 1B 28 Jan 15:16:57 15:20:07 15° 271° (W) 15:23:02 435.225
PHONESAT 2.4 28 Jan 15:41:23 15:42:33 11° 215° (SW) 15:43:36 2401.200-2431.200
DANDE 28 Jan 15:45:32 15:52:18 67° 265° (W) 15:57:15 436.750
M-CUBED/EXP-1 PRIME 28 Jan 15:51:58 15:55:15 61° 290° (WNW) 15:58:36 437.505
HORYU 2 28 Jan 16:05:54 16:07:28 11° 271° (W) 16:08:46 437.375
O/OREOS (USA 219) 28 Jan 16:12:34 16:17:02 75° 110° (ESE) 16:21:34 437.305
RS-15 28 Jan 16:16:16 16:25:15 26° 255° (WSW) 16:33:57 29.354- 29.394
AO-7 28 Jan 16:18:12 16:25:59 40° 262° (W) 16:33:39 29.400- 29.500
CUSAT 1 28 Jan 16:19:58 16:24:58 26° 275° (W) 16:28:53 437.405
Cubesat XI-IV 28 Jan 16:20:40 16:24:27 21° 65° (ENE) 16:28:24 437.490
JAS-2 28 Jan 16:25:48 16:31:18 55° 260° (W) 16:36:26 435.910
AUBIESAT-1 28 Jan 16:26:19 16:29:05 24° 294° (WNW) 16:31:51 437.475
CUTE-I 28 Jan 16:40:01 16:44:32 30° 68° (ENE) 16:49:11 437.470
MOZHAYETS 4 28 Jan 16:48:32 16:53:06 68° 101° (ESE) 16:57:39
PRISM 28 Jan 17:25:07 17:27:23 15° 91° (E) 17:29:50 437.425
SO-50 28 Jan 17:42:10 17:44:52 15° 38° (NE) 17:47:44 436.795
O/OREOS (USA 219) 28 Jan 17:55:10 17:57:07 12° 309° (NW) 17:58:52 437.305
Cubesat XI-IV 28 Jan 17:59:03 18:04:13 51° 260° (W) 18:09:26 437.490
CUTE-I 28 Jan 18:19:46 18:24:34 34° 264° (W) 18:29:21 437.470
MOZHAYETS 4 28 Jan 18:27:52 18:29:51 12° 296° (WNW) 18:31:36
STRAND 1 28 Jan 18:28:48 18:33:36 39° 97° (E) 18:38:26 437.568
CUBESAT XI-V 28 Jan 18:38:52 18:43:35 74° 102° (ESE) 18:48:17 437.345
YUBILEINY 28 Jan 18:53:37 19:01:32 43° 88° (E) 19:09:37 435.215
HO-68 28 Jan 18:57:50 19:04:00 34° 64° (ENE) 19:10:17 435.675
PRISM 28 Jan 18:59:14 19:03:11 43° 288° (WNW) 19:07:07 437.425
GOMX 1 28 Jan 18:59:42 19:03:10 19° 64° (ENE) 19:06:56 467.674
BRITE-PL 28 Jan 19:00:08 19:04:17 27° 67° (ENE) 19:08:48 437.365/2234.400
COMPASS 1 28 Jan 19:10:11 19:12:14 14° 66° (ENE) 19:14:29 437.405
DOVE 4 28 Jan 19:14:58 19:18:26 20° 65° (ENE) 19:22:11 437.250
CANX-2 28 Jan 19:20:50 19:24:27 28° 70° (ENE) 19:28:09 2200.000
SO-50 28 Jan 19:21:16 19:26:13 86° 55° (NE) 19:31:09 436.795
AAUSAT CUBESAT 2 28 Jan 19:35:39 19:38:55 23° 69° (ENE) 19:42:16 437.432
CUTE 1.7 + AOD 2 28 Jan 19:44:33 19:48:39 46° 73° (ENE) 19:52:47 437.475
Oscar 11 28 Jan 19:45:34 19:48:01 15° 66° (ENE) 19:50:38 145.826/435.025
STRAND 1 28 Jan 20:08:27 20:12:38 25° 293° (WNW) 20:16:43 437.568
SEEDS 28 Jan 20:15:52 20:20:08 90° 236° (SW) 20:24:25 437.485
CUBESAT XI-V 28 Jan 20:18:37 20:20:30 12° 296° (WNW) 20:22:08 437.345
UKube-1 28 Jan 20:19:46 20:22:58 21° 68° (ENE) 20:26:19 .
CUBEBUG 2 28 Jan 20:22:14 20:26:16 29° 69° (ENE) 20:30:24 437.445
ZACube-1 28 Jan 20:32:45 20:36:28 25° 69° (ENE) 20:40:18 437.345
GOMX 1 28 Jan 20:35:55 20:40:50 54° 262° (W) 20:46:05 467.674
BRITE-PL 28 Jan 20:37:59 20:42:37 37° 265° (W) 20:47:35 437.365/2234.400
DX 1 28 Jan 20:39:03 20:42:59 35° 71° (ENE) 20:46:59 434.975-435.025
HUMSAT D 28 Jan 20:41:22 20:44:03 17° 67° (ENE) 20:46:54 437.325/437.525
CINEMA 3 28 Jan 20:41:59 20:46:52 76° 76° (ENE) 20:51:57 145.822/145.860
COMPASS 1 28 Jan 20:43:28 20:47:36 51° 261° (W) 20:51:44 437.405
FUNcube-1 28 Jan 20:44:30 20:48:34 33° 71° (ENE) 20:52:43 145.935
HO-68 28 Jan 20:44:42 20:51:34 47° 261° (W) 20:58:23 435.675
YUBILEINY 28 Jan 20:50:21 20:58:27 40° 288° (WNW) 21:06:28 435.215
DOVE 4 28 Jan 20:50:54 20:55:47 53° 262° (W) 21:00:55 437.250
ISS 28 Jan 20:55:51 20:58:07 18° 132° (SE) 21:00:28 145.825
CANX-2 28 Jan 20:56:51 21:00:24 24° 266° (W) 21:03:54 2200.000
AISAT 28 Jan 21:01:22 21:04:52 24° 68° (ENE) 21:08:29 437.250
UWE-3 28 Jan 21:02:50 21:07:26 63° 75° (ENE) 21:12:07 435.000/436.395/437.385
SO-50 28 Jan 21:04:43 21:06:12 11° 252° (WSW) 21:07:21 436.795
ESTCUBE 1 28 Jan 21:04:59 21:06:08 11° 63° (ENE) 21:07:33 437.505/2401.250
DELFI C3 28 Jan 21:08:33 21:12:39 80° 258° (WSW) 21:16:45 145.870
AAUSAT CUBESAT 2 28 Jan 21:10:47 21:14:29 29° 264° (W) 21:18:08 437.432
Oscar 11 28 Jan 21:19:38 21:23:51 48° 261° (W) 21:28:05 145.826/435.025
CUTE 1.7 + AOD 2 28 Jan 21:22:24 21:24:53 15° 270° (W) 21:27:12 437.475
VELOX 1 28 Jan 21:29:08 21:33:20 45° 72° (ENE) 21:37:36 145.980
CUBEBUG 1 28 Jan 21:40:01 21:43:26 23° 68° (ENE) 21:46:56 437.445
QB50P1 28 Jan 21:52:20 21:53:55 12° 89° (E) 21:55:43 145.935-145.965
UKube-1 28 Jan 21:55:02 21:58:59 33° 263° (W) 22:02:55 .
50 SAT 28 Jan 21:56:20 22:00:29 84° 78° (ENE) 22:04:39 437.505
CUBEBUG 2 28 Jan 21:58:45 22:02:55 29° 265° (W) 22:07:05 437.445
UNISAT 6 28 Jan 22:02:52 22:06:41 28° 95° (E) 22:10:28 437.425
POLYITAN 1 28 Jan 22:05:41 22:08:34 18° 92° (E) 22:11:34 437.675
BUGSAT 1 28 Jan 22:06:28 22:08:30 13° 90° (E) 22:10:45 437.445
ZACube-1 28 Jan 22:08:37 22:12:44 31° 264° (W) 22:16:50 437.345
TISAT 1 28 Jan 22:08:53 22:10:04 11° 64° (ENE) 22:11:30 437.305
HUMSAT D 28 Jan 22:15:22 22:19:33 44° 262° (W) 22:23:44 437.325/437.525
DX 1 28 Jan 22:16:09 22:19:23 20° 267° (W) 22:22:31 434.975-435.025
FUNcube-1 28 Jan 22:21:13 22:24:58 24° 267° (W) 22:28:40 145.935
AIST 1 28 Jan 22:22:27 22:26:48 71° 81° (E) 22:31:10
CINEMA 3 28 Jan 22:22:58 22:24:47 11° 274° (W) 22:26:17 145.822/145.860
POPSAT HIP 1 28 Jan 22:25:20 22:29:05 29° 95° (E) 22:32:51 437.405
DUCHIFAT 1 28 Jan 22:28:15 22:32:03 30° 96° (E) 22:35:53 145.980
ISS 28 Jan 22:31:13 22:34:25 47° 327° (NNW) 22:37:37 145.825
AISAT 28 Jan 22:37:23 22:41:22 31° 264° (W) 22:45:21 437.250
ESTCUBE 1 28 Jan 22:38:01 22:42:29 75° 258° (WSW) 22:47:00 437.505/2401.250
ANTELSAT 28 Jan 22:38:23 22:42:51 71° 101° (ESE) 22:47:11 437.575/2403.000
UWE-3 28 Jan 22:42:16 22:44:30 13° 272° (W) 22:46:29 435.000/436.395/437.385
TIGRISAT 28 Jan 22:46:25 22:50:55 85° 102° (ESE) 22:55:16 435.000
